Change the Weather History Date:

Sunday, June 23, 2013

  Actual Average Record
Temperature  
Mean Temperature 57 °F -  
Max Temperature 66 °F 59 °F 72 °F (1974)
Min Temperature 48 °F 44 °F 35 °F (1954)
Degree Days  
Heating Degree Days 8    
Growing Degree Days 7 (Base 50)    
Moisture  
Dew Point 45 °F    
Average Humidity 67    
Maximum Humidity 93    
Minimum Humidity 43    
Precipitation  
Precipitation 0.01 in - - ()
Sea Level Pressure  
Sea Level Pressure 29.69 in    
Wind  
Wind Speed 2 mph (SSW)    
Max Wind Speed 10 mph    
Max Gust Speed 17 mph    
Visibility 10 miles    
Events      
Averages and records for this station are not official NWS values.
T = Trace of Precipitation, MM = Missing Value Source: NWS Daily Summary

Daily Weather History Graph

Daily Weather History Graph

Search for Another Location

Airport or City:

Trip Planner

Search our weather history database for the weather conditions in past years. The results will help you decide how hot, cold, wet, or windy it might be!

Date:

Astronomy

Jun. 23, 2013 Rise Set
Actual Time 4:35 AM AKDT 11:37 PM AKDT
Civil Twilight 2:27 AM AKDT 1:44 AM AKDT
Nautical Twilight Sun does not rise Sun does not rise
Astronomical Twilight Sun does not rise Sun does not rise
Moon 11:20 PM AKDT (6/23) 5:33 AM AKDT (6/23)
Length of Visible Light 23h 17m
Length of Day
19h 02m
Full, 100% of the Moon is Illuminated
Jun 23
Full
Jun 29
Last Quarter
Jul 7
New
Jul 15
First Quarter
Jul 22
Full

Hourly Weather History & Observations

Time (AKDT) Temp. Dew Point Humidity Pressure Visibility Wind Dir Wind Speed Gust Speed Precip Events Conditions
12:16 AM 53.6 °F 44.6 °F 72% 29.77 in 10.0 mi Calm Calm - N/A   Overcast
12:36 AM 51.8 °F 44.6 °F 76% 29.77 in 10.0 mi Calm Calm - N/A   Mostly Cloudy
12:56 AM 51.8 °F 44.6 °F 76% 29.77 in 10.0 mi Calm Calm - N/A   Overcast
1:16 AM 51.8 °F 46.4 °F 82% 29.76 in 10.0 mi SSE 3.5 mph - N/A   Overcast
1:36 AM 51.8 °F 46.4 °F 82% 29.76 in 10.0 mi Calm Calm - N/A   Overcast
1:56 AM 50.0 °F 46.4 °F 87% 29.75 in 10.0 mi Calm Calm - N/A   Overcast
2:16 AM 50.0 °F 46.4 °F 87% 29.75 in 10.0 mi Calm Calm - N/A   Mostly Cloudy
2:36 AM 51.8 °F 46.4 °F 82% 29.74 in 10.0 mi Calm Calm - N/A   Overcast
2:56 AM 50.0 °F 46.4 °F 87% 29.74 in 10.0 mi Calm Calm - N/A   Overcast
3:16 AM 50.0 °F 46.4 °F 87% 29.74 in 10.0 mi Calm Calm - N/A   Overcast
3:36 AM 48.2 °F 44.6 °F 87% 29.74 in 10.0 mi Calm Calm - N/A   Overcast
3:56 AM 48.2 °F 46.4 °F 93% 29.73 in 10.0 mi Calm Calm - N/A   Mostly Cloudy
4:16 AM 48.2 °F 46.4 °F 93% 29.73 in 10.0 mi Calm Calm - N/A   Overcast
4:36 AM 48.2 °F 44.6 °F 87% 29.73 in 10.0 mi Calm Calm - N/A   Overcast
4:56 AM 48.2 °F 44.6 °F 87% 29.73 in 10.0 mi Calm Calm - N/A   Overcast
5:16 AM 48.2 °F 44.6 °F 87% 29.73 in 10.0 mi Calm Calm - N/A   Overcast
5:36 AM 48.2 °F 44.6 °F 87% 29.73 in 10.0 mi Calm Calm - N/A   Overcast
5:56 AM 48.2 °F 44.6 °F 87% 29.72 in 10.0 mi Calm Calm - N/A   Overcast
6:16 AM 48.2 °F 46.4 °F 93% 29.72 in 10.0 mi NE 3.5 mph - N/A   Overcast
6:36 AM 48.2 °F 44.6 °F 87% 29.72 in 7.0 mi Calm Calm - N/A   Overcast
6:56 AM 48.2 °F 46.4 °F 93% 29.71 in 10.0 mi East 4.6 mph - N/A   Overcast
7:16 AM 48.2 °F 46.4 °F 93% 29.71 in 8.0 mi ESE 5.8 mph - N/A   Overcast
7:36 AM 48.2 °F 46.4 °F 93% 29.71 in 8.0 mi ENE 3.5 mph - N/A   Overcast
7:56 AM 48.2 °F 46.4 °F 93% 29.71 in 9.0 mi Calm Calm - 0.01 in   Overcast
8:16 AM 50.0 °F 46.4 °F 87% 29.70 in 10.0 mi Calm Calm - N/A   Overcast
8:36 AM 51.8 °F 46.4 °F 82% 29.71 in 10.0 mi Calm Calm - N/A   Overcast
8:56 AM 51.8 °F 46.4 °F 82% 29.70 in 10.0 mi Calm Calm - N/A   Overcast
9:16 AM 53.6 °F 46.4 °F 77% 29.70 in 10.0 mi East 3.5 mph - N/A   Overcast
9:36 AM 53.6 °F 48.2 °F 82% 29.70 in 10.0 mi East 4.6 mph - N/A   Overcast
9:56 AM 55.4 °F 48.2 °F 77% 29.70 in 10.0 mi East 6.9 mph - N/A   Overcast
10:16 AM 55.4 °F 46.4 °F 72% 29.70 in 10.0 mi ENE 5.8 mph - N/A   Overcast
10:36 AM 55.4 °F 46.4 °F 72% 29.70 in 10.0 mi NNE 4.6 mph - N/A   Overcast
10:56 AM 57.2 °F 46.4 °F 67% 29.70 in 10.0 mi Calm Calm - N/A   Overcast
11:16 AM 57.2 °F 46.4 °F 67% 29.70 in 10.0 mi Calm Calm - N/A   Scattered Clouds
11:36 AM 59.0 °F 46.4 °F 63% 29.69 in 10.0 mi Calm Calm - N/A   Partly Cloudy
11:56 AM 60.8 °F 46.4 °F 59% 29.68 in 10.0 mi SSW 5.8 mph - N/A   Clear
12:16 PM 62.6 °F 44.6 °F 52% 29.68 in 10.0 mi SE 4.6 mph - N/A   Clear
12:36 PM 64.4 °F 44.6 °F 49% 29.68 in 10.0 mi East 4.6 mph 17.3 mph N/A   Scattered Clouds
12:56 PM 64.4 °F 44.6 °F 49% 29.68 in 10.0 mi East 9.2 mph - N/A   Partly Cloudy
1:16 PM 62.6 °F 44.6 °F 52% 29.68 in 10.0 mi NE 5.8 mph - N/A   Scattered Clouds
1:36 PM 64.4 °F 44.6 °F 49% 29.68 in 10.0 mi NNE 6.9 mph - N/A   Overcast
1:56 PM 64.4 °F 44.6 °F 49% 29.67 in 10.0 mi East 8.1 mph - N/A   Overcast
2:16 PM 64.4 °F 46.4 °F 52% 29.68 in 10.0 mi Calm Calm - N/A   Overcast
2:36 PM 64.4 °F 46.4 °F 52% 29.67 in 10.0 mi NNW 3.5 mph - N/A   Overcast
2:56 PM 66.2 °F 42.8 °F 43% 29.67 in 10.0 mi NNE 3.5 mph - N/A   Overcast
3:16 PM 64.4 °F 46.4 °F 52% 29.67 in 10.0 mi West 3.5 mph - N/A   Overcast
3:36 PM 66.2 °F 42.8 °F 43% 29.66 in 10.0 mi East 10.4 mph - N/A   Overcast
3:56 PM 66.2 °F 44.6 °F 46% 29.66 in 10.0 mi East 5.8 mph - N/A   Overcast
4:16 PM 66.2 °F 42.8 °F 43% 29.65 in 10.0 mi South 4.6 mph - N/A   Overcast
4:36 PM 66.2 °F 42.8 °F 43% 29.65 in 10.0 mi SE 8.1 mph - N/A   Overcast
4:56 PM 66.2 °F 44.6 °F 46% 29.66 in 10.0 mi South 6.9 mph - N/A   Overcast
5:16 PM 66.2 °F 44.6 °F 46% 29.65 in 10.0 mi SW 4.6 mph - N/A   Mostly Cloudy
5:36 PM 64.4 °F 42.8 °F 45% 29.65 in 10.0 mi SW 10.4 mph - N/A   Scattered Clouds
5:56 PM 64.4 °F 42.8 °F 45% 29.65 in 10.0 mi SW 6.9 mph - N/A   Mostly Cloudy
6:16 PM 64.4 °F 42.8 °F 45% 29.65 in 10.0 mi WSW 9.2 mph - N/A   Partly Cloudy
6:36 PM 64.4 °F 42.8 °F 45% 29.64 in 10.0 mi WSW 9.2 mph - N/A   Partly Cloudy
6:56 PM 64.4 °F 44.6 °F 49% 29.64 in 10.0 mi WSW 8.1 mph - N/A   Clear
7:16 PM 64.4 °F 44.6 °F 49% 29.64 in 10.0 mi WSW 9.2 mph - N/A   Clear
7:36 PM 64.4 °F 44.6 °F 49% 29.64 in 10.0 mi WSW 8.1 mph - N/A   Clear
7:56 PM 64.4 °F 44.6 °F 49% 29.64 in 10.0 mi SW 5.8 mph - N/A   Partly Cloudy
8:16 PM 64.4 °F 44.6 °F 49% 29.64 in 10.0 mi South 5.8 mph - N/A   Clear
8:36 PM 64.4 °F 44.6 °F 49% 29.64 in 10.0 mi WSW 5.8 mph - N/A   Scattered Clouds
8:56 PM 62.6 °F 46.4 °F 55% 29.64 in 10.0 mi West 5.8 mph - N/A   Partly Cloudy
9:16 PM 62.6 °F 46.4 °F 55% 29.64 in 10.0 mi West 5.8 mph - N/A   Clear
9:36 PM 62.6 °F 44.6 °F 52% 29.64 in 10.0 mi WSW 3.5 mph - N/A   Clear
9:56 PM 62.6 °F 44.6 °F 52% 29.63 in 10.0 mi West 6.9 mph - N/A   Clear
10:16 PM 59.0 °F 46.4 °F 63% 29.63 in 10.0 mi West 5.8 mph - N/A   Clear
10:36 PM 57.2 °F 46.4 °F 67% 29.63 in 10.0 mi WNW 5.8 mph - N/A   Clear
10:56 PM 57.2 °F 44.6 °F 63% 29.63 in 10.0 mi West 4.6 mph - N/A   Clear
11:16 PM 57.2 °F 44.6 °F 63% 29.63 in 10.0 mi West 5.8 mph - N/A   Clear
11:36 PM 55.4 °F 44.6 °F 67% 29.63 in 10.0 mi West 3.5 mph - N/A   Clear
11:56 PM 55.4 °F 44.6 °F 67% 29.63 in 10.0 mi WSW 4.6 mph - N/A   Clear